Home   Weather   Frankfort   Past weeks

Flag for USA Past Weather in Frankfort, Kentucky, USA — Yesterday and Last 2 Weeks

Now
91 °F

Sunny.


Feels Like: 101 °F
Forecast: 78 / 93 °F
Wind: 8 mph from Southwest

Location: Capital City Airport

Current Time: Jul 22, 2017 at 7:16:27 pm

Latest Report: Jul 22, 2017 at 5:53 pm


Visibility: 9 mi

Pressure: 29.80 "Hg

Humidity: 57%

Dew Point: 74 °F

Location of FrankfortLocation

Past Weather in Frankfort — Graph

°F

Frankfort Temperature Yesterday

Maximum temperature yesterday: 93 °F (at 2:53 pm)
Minimum temperature yesterday: 76 °F (at 2:53 am)
Average temperature yesterday: 84 °F

High & Low Weather Summary for the Past Weeks

 TemperatureHumidityPressure
High93 °F (Jul 21, 2:53 pm)93% (Jul 8, 5:53 am)30.14 "Hg (Jul 8, 5:53 am)
Low61 °F (Jul 9, 5:53 am)36% (Jul 9, 4:53 pm)29.79 "Hg (Jul 22, 3:53 pm)
Average79 °F70%30.01 "Hg
* Reported Jul 7 5:53 pm — Jul 22 5:53 pm, Frankfort. Weather by CustomWeather, © 2017

Note: Actual official high and low records may vary slightly from our data, if they occured in-between our weather recording intervals... More about our weather records

Advertising

Frankfort Weather History for the Previous 24 Hours

Scroll right to see more
 ConditionsComfort  
Time TempWeatherWind HumidityBarometerVisibility
5:53 pm
Sat, Jul 22
91 °FSunny.8 mph57%29.80 "Hg9 mi
4:53 pm92 °FSunny.14 mph56%29.80 "Hg10 mi
3:53 pm91 °FSunny.15 mph57%29.79 "Hg9 mi
2:53 pm89 °FPassing clouds.18 mph61%29.84 "Hg9 mi
2:37 pm90 °FScattered clouds.16 mph61%29.89 "Hg9 mi
1:53 pm91 °FBroken clouds.12 mph61%29.88 "Hg9 mi
12:53 pm91 °FScattered clouds.12 mph57%29.91 "Hg10 mi
11:53 am90 °FSunny.13 mph59%29.92 "Hg9 mi
10:53 am88 °FSunny.12 mph63%29.93 "Hg9 mi
9:53 am86 °FSunny.7 mph70%29.92 "Hg8 mi
8:53 am81 °FHaze.8 mph79%29.92 "Hg6 mi
7:53 am79 °FSunny.6 mph82%29.90 "Hg6 mi
6:53 am77 °FSunny.5 mph85%29.90 "Hg5 mi
5:53 am78 °FClear.5 mph82%29.90 "Hg7 mi
4:53 am77 °FClear.6 mph85%29.90 "Hg7 mi
3:53 am79 °FClear.7 mph79%29.89 "Hg8 mi
2:53 am80 °FClear.7 mph76%29.89 "Hg9 mi
1:53 am79 °FClear.6 mph79%29.92 "Hg9 mi
12:53 am80 °FClear.6 mph76%29.94 "Hg9 mi
11:53 pm
Fri, Jul 21
81 °FClear.3 mph77%29.95 "Hg8 mi
10:53 pm82 °FClear.3 mph74%29.94 "Hg10 mi
9:53 pm81 °FClear.3 mph79%29.93 "Hg10 mi
8:53 pm86 °FSunny.No wind67%29.91 "Hg10 mi
7:53 pm91 °FSunny.3 mph54%29.92 "Hg10 mi
7:05 pm92 °FSunny.8 mph49%29.95 "Hg10 mi
Weather by CustomWeather, © 2017

See weather overviewHow to use our weather pages